Location: Newark
(25.4297°S, 49.2719°W)
Time: 12:47:16
(UTC+00:00)

Tiros 1 - Pass Details

Date: 20 November 2019
Orbit: 630 x 664 km, 48.4° (Epoch: 07 December)

Event Time Altitude Azimuth Distance (km) Brightness Sun altitude
Exits shadow 05:07:53 17° 182° (S) 1,688 9.7 -35.6°
Drops below altitude 10° 05:09:35 10° 165° (SSE) 2,100 10.4 -35.4°
Sets 05:12:28 0° 148° (SSE) 3,015 11.6 -35.0°
